Weather History for Lee's Summit, MO

Change the Weather History Date:

Thursday, May 2, 2013

  Actual Average (KMKC) Record (KMKC)
Temperature  
Mean Temperature 39 °F -  
Max Temperature 45 °F 70 °F 82 °F (2012)
Min Temperature 33 °F 51 °F 33 °F (2005)
Degree Days  
Heating Degree Days 26    
Moisture  
Dew Point 35 °F    
Average Humidity 88    
Maximum Humidity 96    
Minimum Humidity 74    
Precipitation  
Precipitation 0.50 in - - ()
Sea Level Pressure  
Sea Level Pressure 30.32 in    
Wind  
Wind Speed 17 mph (North)    
Max Wind Speed 25 mph    
Max Gust Speed 34 mph    
Visibility 5 miles    
Events Fog , Rain , Snow    
Averages and records for this station are not official NWS values.
T = Trace of Precipitation, MM = Missing Value Source: NWS Daily Summary

Daily Weather History Graph

Daily Weather History Graph

Search for Another Location

Airport:

Trip Planner

Search our weather history database for the weather conditions in past years. The results will help you decide how hot, cold, wet, or windy it might be!

Date:

Astronomy

May. 02, 2013 Rise Set
Actual Time 6:18 AM CDT 8:11 PM CDT
Civil Twilight 5:49 AM CDT 8:40 PM CDT
Nautical Twilight 5:14 AM CDT 9:15 PM CDT
Astronomical Twilight 4:36 AM CDT 9:53 PM CDT
Moon 2:01 AM CDT (5/2) 1:05 PM CDT (5/2)
Length of Visible Light 14h 51m
Length of Day
13h 53m
Waning Gibbous, 47% of the Moon is Illuminated
May 2
Waning Gibbous
May 9
New
May 17
First Quarter
May 24
Full
May 31
Last Quarter

Hourly Weather History & Observations

Time (CDT) Temp. Windchill Dew Point Humidity Pressure Visibility Wind Dir Wind Speed Gust Speed Precip Events Conditions
12:42 AM 44.6 °F 38.1 °F 37.4 °F 76% 30.18 in 10.0 mi North 13.8 mph - N/A   Overcast
12:53 AM 45.0 °F 36.9 °F 37.0 °F 74% 30.17 in 10.0 mi North 20.7 mph 25.3 mph N/A   Overcast
1:53 AM 43.0 °F 36.0 °F 37.9 °F 82% 30.19 in 6.0 mi NNW 13.8 mph - 0.03 in Rain Light Rain
2:15 AM 42.8 °F 35.4 °F 39.2 °F 87% 30.20 in 9.0 mi North 15.0 mph - 0.00 in Rain Light Rain
2:53 AM 42.1 °F 35.2 °F 39.0 °F 89% 30.22 in 5.0 mi NNW 12.7 mph 19.6 mph 0.07 in Rain Rain
3:20 AM 42.8 °F 36.6 °F 39.2 °F 87% 30.22 in 10.0 mi North 11.5 mph 21.9 mph 0.01 in Rain Light Rain
3:42 AM 42.8 °F 35.4 °F 39.2 °F 87% 30.22 in 9.0 mi North 15.0 mph 23.0 mph 0.01 in Rain Light Rain
3:53 AM 42.1 °F 34.9 °F 39.0 °F 89% 30.22 in 10.0 mi North 13.8 mph - 0.02 in Rain Light Rain
4:12 AM 42.8 °F 34.3 °F 39.2 °F 87% 30.23 in 10.0 mi North 19.6 mph 28.8 mph 0.00 in   Overcast
4:53 AM 42.1 °F 34.5 °F 39.0 °F 89% 30.25 in 10.0 mi North 15.0 mph 24.2 mph 0.00 in   Overcast
5:53 AM 42.1 °F 34.5 °F 39.0 °F 89% 30.26 in 10.0 mi North 15.0 mph - 0.00 in   Overcast
6:39 AM 41.0 °F 32.5 °F 39.2 °F 93% 30.26 in 10.0 mi North 17.3 mph 20.7 mph N/A   Overcast
6:53 AM 42.1 °F 34.5 °F 37.9 °F 85% 30.27 in 10.0 mi North 15.0 mph 26.5 mph N/A   Overcast
7:24 AM 41.0 °F 32.8 °F 37.4 °F 87% 30.28 in 10.0 mi North 16.1 mph 24.2 mph N/A   Overcast
7:53 AM 41.0 °F 33.9 °F 37.9 °F 89% 30.31 in 10.0 mi North 12.7 mph - N/A   Overcast
8:53 AM 41.0 °F 31.4 °F 37.9 °F 89% 30.32 in 3.0 mi North 21.9 mph 26.5 mph N/A   Overcast
9:15 AM 39.2 °F 28.7 °F 35.6 °F 87% 30.32 in 10.0 mi North 23.0 mph 34.5 mph N/A   Overcast
9:53 AM 39.9 °F 31.1 °F 36.0 °F 86% 30.37 in 10.0 mi NNW 17.3 mph 27.6 mph N/A   Overcast
10:38 AM 39.2 °F 31.2 °F 35.6 °F 87% 30.34 in 10.0 mi North 13.8 mph 23.0 mph N/A   Overcast
10:53 AM 39.9 °F 30.5 °F 35.1 °F 83% 30.36 in 10.0 mi North 19.6 mph 26.5 mph N/A   Overcast
11:53 AM 39.9 °F 30.8 °F 36.0 °F 86% 30.37 in 3.0 mi North 18.4 mph 26.5 mph N/A   Overcast
11:58 AM 39.2 °F 29.3 °F 35.6 °F 87% 30.35 in 2.5 mi North 20.7 mph 26.5 mph N/A   Overcast
12:10 PM 39.2 °F 29.6 °F 35.6 °F 87% 30.35 in 4.0 mi North 19.6 mph 26.5 mph N/A   Overcast
12:53 PM 39.9 °F 29.5 °F 36.0 °F 86% 30.35 in 8.0 mi North 24.2 mph 29.9 mph N/A   Overcast
1:01 PM 39.2 °F 29.3 °F 35.6 °F 87% 30.33 in 9.0 mi North 20.7 mph 32.2 mph N/A   Overcast
1:14 PM 39.2 °F 30.2 °F 35.6 °F 87% 30.32 in 10.0 mi North 17.3 mph 26.5 mph N/A   Overcast
2:32 PM 37.4 °F 27.2 °F 35.6 °F 93% 30.34 in 4.0 mi NNW 19.6 mph 27.6 mph 0.05 in Rain Rain
2:51 PM 37.4 °F 28.2 °F 35.6 °F 93% 30.33 in 6.0 mi North 16.1 mph 25.3 mph 0.08 in Rain Light Rain
2:53 PM 37.9 °F 27.6 °F 35.1 °F 89% 30.35 in 6.0 mi North 20.7 mph 26.5 mph 0.08 in Rain Light Rain
3:53 PM 36.0 °F 25.0 °F 33.1 °F 89% 30.39 in 4.0 mi North 20.7 mph 26.5 mph 0.07 in Rain Rain
4:08 PM 35.6 °F 25.2 °F 33.8 °F 93% 30.35 in 5.0 mi NNW 18.4 mph 26.5 mph 0.02 in Snow Light Snow
4:43 PM 33.8 °F 24.3 °F 30.2 °F 87% 30.36 in 1.8 mi NNW 13.8 mph 24.2 mph 0.06 in Snow Light Snow
4:53 PM 33.1 °F 21.5 °F 30.9 °F 92% 30.38 in 0.8 mi North 19.6 mph 27.6 mph 0.07 in Snow Light Snow
5:16 PM 33.8 °F 23.9 °F 30.2 °F 87% 30.36 in 1.2 mi North 15.0 mph - 0.01 in Snow Light Snow
5:53 PM 33.1 °F 20.6 °F 30.9 °F 92% 30.38 in 1.0 mi North 23.0 mph 29.9 mph 0.03 in Snow Light Snow
6:02 PM 33.8 °F 23.2 °F 30.2 °F 87% 30.35 in 0.8 mi North 17.3 mph 28.8 mph 0.00 in Snow Light Snow
6:53 PM 33.1 °F 20.1 °F 30.9 °F 92% 30.36 in 0.8 mi North 25.3 mph 33.4 mph 0.04 in Snow Light Snow
7:04 PM 33.8 °F 22.5 °F 30.2 °F 87% 30.34 in 1.0 mi North 19.6 mph 26.5 mph 0.00 in Snow Light Snow
7:27 PM 33.8 °F 22.5 °F 30.2 °F 87% 30.35 in 0.8 mi North 19.6 mph 31.1 mph 0.01 in Snow Light Snow
7:53 PM 33.1 °F 21.5 °F 30.9 °F 92% 30.38 in 0.5 mi North 19.6 mph 26.5 mph 0.02 in Fog , Snow Snow
8:24 PM 33.8 °F 22.8 °F 30.2 °F 87% 30.34 in 1.0 mi North 18.4 mph 29.9 mph 0.01 in Snow Light Snow
8:53 PM 33.1 °F 23.0 °F 30.9 °F 92% 30.39 in 1.2 mi NNW 15.0 mph 21.9 mph 0.01 in Snow Light Snow
9:20 PM 33.8 °F 24.3 °F 30.2 °F 87% 30.36 in 0.8 mi North 13.8 mph - 0.02 in Snow Light Snow
9:39 PM 33.8 °F 23.2 °F 30.2 °F 87% 30.35 in 1.0 mi North 17.3 mph 24.2 mph 0.03 in Snow Light Snow
9:53 PM 33.1 °F 22.6 °F 30.9 °F 92% 30.36 in 1.0 mi North 16.1 mph - 0.03 in Snow Light Snow
10:01 PM 33.8 °F 24.3 °F 30.2 °F 87% 30.34 in 0.8 mi North 13.8 mph 24.2 mph 0.01 in Snow Light Snow
10:17 PM 33.8 °F 24.3 °F 30.2 °F 87% 30.34 in 1.0 mi North 13.8 mph - 0.02 in Snow Light Snow
10:39 PM 33.8 °F 23.9 °F 30.2 °F 87% 30.33 in 2.0 mi North 15.0 mph - 0.02 in Snow Light Snow
10:53 PM 33.1 °F 22.6 °F 30.9 °F 92% 30.34 in 2.5 mi North 16.1 mph 24.2 mph 0.02 in Snow Light Snow
11:53 PM 33.1 °F 23.4 °F 32.0 °F 96% 30.33 in 3.0 mi North 13.8 mph 19.6 mph 0.01 in Snow Light Snow